Location: Chassagnes
(44.4047°N, 4.1657°E)
Time: 12:26:59
(UTC+00:00)

Cosmos 2369 - Pass Details

Date: 27 October 2020
Orbit: 840 x 855 km, 71.0° (Epoch: 23 November)

Event Time Altitude Azimuth Distance (km) Brightness Sun altitude
Rises 18:52:29 0° 205° (SSW) 3,410 7.1 -24.3°
Reaches altitude 10° 18:54:56 10° 206° (SSW) 2,477 6.4 -24.8°
Maximum altitude 19:00:38 84° 295° (WNW) 863 3.7 -25.8°
Enters shadow 19:03:10 35° 21° (NNE) 1,344 4.6 -26.2°
